This demonstration page uses our WeatherBlox Daily Observations layout. Learn more.

Left ArrowRight Arrow

Hourly Observations for December 30, 2018

Temp ( °F °C ) Dew Point ( °F °C ) Humidity (%) Winds ( mph kmh ) Pressure ( in mb ) Visibility ( mi km ) Precip ( " mm )
12:53 am 00:53 Cloudy 50 10 48 8.9 93 93 S 3 6 30.19 1022 10 16 0.00 0.03
1:53 am 01:53 Cloudy with Light Rain 50 10 49 9.4 96 96 Calm 30.19 1022 9 14 0.02 0.51
2:53 am 02:53 Cloudy 50 10 50 10 100 100 Calm 30.16 1021 10 16 0.00 0.03
3:53 am 03:53 Cloudy 50 10 50 10 100 100 Calm 30.14 1021 10 16 0.00 0.03
4:25 am 04:25 Cloudy with Thunderstorms 50 10 50 10 100 100 Calm 30.18 1022 6 10 0.02 0.51
4:39 am 04:39 Cloudy with Thunderstorms 50 10 50 10 100 100 NW 6 9 30.18 1022 3 4 0.09 2.29
4:53 am 04:53 Cloudy with Nearby Thunderstorms 50 10 50 10 100 100 NE 3 6 30.13 1020 2 3 0.20 5.08
5:01 am 05:01 Cloudy with Rain 50 10 50 10 100 100 Calm 30.18 1022 4 6 0.01 0.25
5:10 am 05:10 Cloudy with Light Rain 50 10 50 10 100 100 Calm 30.15 1021 6 10 0.02 0.51
5:24 am 05:24 Cloudy 50 10 50 10 100 100 Calm 30.18 1022 10 16 0.02 0.51
5:53 am 05:53 Cloudy with Light Rain 50 10 50 10 100 100 ENE 3 6 30.14 1021 8 13 0.02 0.51
6:48 am 06:48 Cloudy with Light Rain 50 10 50 10 100 100 NNW 3 6 30.21 1023 4 6 0.01 0.25
6:53 am 06:53 Cloudy with Light Rain 50 10 50 10 100 100 NNW 3 6 30.16 1022 4 6 0.02 0.51
7:33 am 07:33 Cloudy with Mist and Fog 50 10 50 10 100 100 NNE 5 7 30.21 1023 3 5 0.02 0.51
7:53 am 07:53 Cloudy with Mist and Fog 50 10 50 10 100 100 NE 3 6 30.18 1022 3 4 0.02 0.51
8:06 am 08:06 Cloudy with Mist and Fog 50 10 50 10 100 100 NE 5 7 30.21 1023 3 5 0.00 0.00
8:23 am 08:23 Cloudy with Mist and Fog 50 10 50 10 100 100 Calm 30.21 1023 6 10 0.00 0.00
8:53 am 08:53 Cloudy with Mist and Fog 51 10.6 51 10.6 100 100 Calm 30.19 1022 6 10 0.00 0.00
9:04 am 09:04 Cloudy 51 10.6 51 10.6 100 100 Calm 30.21 1023 7 11 0.00 0.00
9:12 am 09:12 Cloudy with Mist and Fog 51 10.6 51 10.6 100 100 Calm 30.21 1023 6 10 0.00 0.00
9:32 am 09:32 Cloudy with Light Rain 51 10.6 51 10.6 100 100 Calm 30.21 1023 2 3 0.01 0.25
9:49 am 09:49 Cloudy with Light Rain 52 11 52 11 100 100 NNW 3 6 30.21 1023 2 3 0.01 0.25
9:50 am 09:50 Cloudy with Light Rain 51 10.6 51 10.6 100 100 N 3 6 30.22 1023 2 3 0.01 0.25
10:02 am 10:02 Cloudy with Mist and Fog 51 10.6 51 10.6 100 100 Calm 30.21 1023 2 3 0.01 0.25
10:29 am 10:29 Cloudy with Mist and Fog 51 10.6 51 10.6 100 100 Calm 30.21 1023 2 3 0.01 0.25
10:53 am 10:53 Cloudy with Mist and Fog 52 11.1 52 11.1 100 100 Calm 30.19 1023 3 4 0.01 0.25
11:08 am 11:08 Cloudy with Mist and Fog 52 11.1 52 11.1 100 100 E 3 6 30.21 1023 3 5 0.00 0.00
11:22 am 11:22 Cloudy with Mist and Fog 53 11.7 53 11.7 100 100 ENE 3 6 30.21 1023 3 5 0.00 0.00
11:37 am 11:37 Cloudy with Mist and Fog 53 11.7 53 11.7 100 100 N 5 7 30.21 1023 3 4 0.00 0.00
11:45 am 11:45 Cloudy with Mist and Fog 53 11.7 53 11.7 100 100 N 3 6 30.21 1023 3 4 0.00 0.00
11:53 am 11:53 Cloudy with Mist and Fog 53 11.7 53 11.7 100 100 NNE 5 7 30.17 1022 3 4 0.00 0.00
12:53 pm 12:53 Cloudy with Mist and Fog 53 11.7 53 11.7 100 100 N 5 7 30.14 1021 2 3 0.00 0.00
1:08 pm 13:08 Cloudy with Mist and Fog 53 11.7 53 11.7 100 100 NE 3 6 30.18 1022 2 2 0.00 0.00
1:33 pm 13:33 Cloudy with Mist and Fog 53 11.7 53 11.7 100 100 NNE 5 7 30.18 1022 2 3 0.00 0.00
1:45 pm 13:45 Cloudy with Mist and Fog 54 12.2 54 12.2 100 100 ENE 3 6 30.15 1021 3 5 0.00 0.00
1:53 pm 13:53 Cloudy with Mist and Fog 54 12.2 54 12.2 100 100 ENE 3 6 30.13 1020 3 5 0.00 0.00
2:21 pm 14:21 Cloudy with Mist and Fog 54 12.2 54 12.2 100 100 N 5 7 30.15 1021 3 4 0.00 0.00
2:42 pm 14:42 Cloudy with Mist and Fog 54 12.2 54 12.2 100 100 ENE 5 7 30.15 1021 3 5 0.00 0.00
2:53 pm 14:53 Cloudy with Mist and Fog 54 12.2 54 12.2 100 100 NE 5 7 30.13 1020 3 5 0.00 0.00
3:05 pm 15:05 Cloudy with Mist and Fog 54 12.2 54 12.2 100 100 NNE 5 7 30.18 1022 3 4 0.00 0.00
3:53 pm 15:53 Cloudy with Light Rain 54 12.2 54 12.2 100 100 Calm 30.13 1020 2 3 0.00 0.03
4:05 pm 16:05 Cloudy with Light Rain 54 12.2 54 12.2 100 100 NE 5 7 30.15 1021 2 3 0.01 0.25
4:24 pm 16:24 Cloudy with Mist and Fog 54 12.2 54 12.2 100 100 Calm 30.18 1022 3 5 0.01 0.25
4:53 pm 16:53 Cloudy with Mist and Fog 55 12.8 55 12.8 100 100 NNE 5 7 30.14 1021 4 6 0.01 0.25
5:20 pm 17:20 Cloudy with Mist and Fog 55 12.8 55 12.8 100 100 NNE 3 6 30.18 1022 4 6 0.00 0.00
5:53 pm 17:53 Cloudy with Mist and Fog 55 12.8 55 12.8 100 100 Calm 30.15 1021 6 10 0.00 0.00
6:53 pm 18:53 Cloudy with Mist and Fog 55 12.8 55 12.8 100 100 Calm 30.16 1021 6 10 0.00 0.00
7:53 pm 19:53 Cloudy with Mist and Fog 55 12.8 55 12.8 100 100 E 5 7 30.16 1021 6 10 0.00 0.00
8:03 pm 20:03 Cloudy with Mist and Fog 55 12.8 55 12.8 100 100 E 3 6 30.18 1022 6 10 0.00 0.00
8:53 pm 20:53 Cloudy 55 12.8 55 12.8 100 100 Calm 30.16 1021 7 11 0.00 0.03
9:53 pm 21:53 Cloudy 55 12.8 55 12.8 100 100 E 3 6 30.15 1021 10 16 0.05 1.27
10:28 pm 22:28 Cloudy with Light Rain 55 12.8 55 12.8 100 100 E 5 7 30.18 1022 7 11 0.01 0.25
10:53 pm 22:53 Cloudy with Light Rain 55 12.8 55 12.8 100 100 E 3 6 30.15 1021 6 10 0.01 0.25
11:15 pm 23:15 Cloudy with Light Rain 55 12.8 55 12.8 100 100 E 3 6 30.18 1022 10 16 0.01 0.25
11:25 pm 23:25 Cloudy with Mist and Fog 55 12.8 55 12.8 100 100 ENE 3 6 30.18 1022 4 6 0.01 0.25
11:53 pm 23:53 Cloudy with Light Rain 55 12.8 55 12.8 100 100 E 3 6 30.14 1021 10 16 0.01 0.25

Powered by AerisWeather